FW1036 Weather Reports


time (UTC)temp
C
wind
direction
speed
KPH
gust
KPH
rain 1hr
cm
rain 24hr
cm
rain mn
cm
humidity
%
barometer
mb
20260508191535 15 221 4.8 20.9 0.00 0.00 0.00 40 1008.3
20260508190034 15 207 4.8 14.5 0.00 0.00 0.00 36 1008.4
20260508184528 15 216 3.2 19.3 0.00 0.00 0.00 36 1008.6
20260508183023 15 240 9.7 16.1 0.00 0.00 0.00 38 1008.9
20260508181531 15 221 11.3 19.3 0.00 0.00 0.00 38 1009.0
20260508180019 14 258 8.0 19.3 0.00 0.00 0.00 39 1009.1
20260508174517 15 208 9.7 17.7 0.00 0.00 0.00 41 1009.4
20260508173018 15 247 9.7 17.7 0.00 0.00 0.00 35 1009.7
20260508171521 14 271 9.7 20.9 0.00 0.00 0.00 42 1009.9
20260508170012 13 190 4.8 25.7 0.00 0.00 0.00 41 1010.2
20260508164507 13 157 3.2 17.7 0.00 0.00 0.00 42 1010.2
20260508163005 13 305 6.4 20.9 0.00 0.00 0.00 38 1010.4
20260508161502 13 268 8.0 17.7 0.00 0.00 0.00 44 1010.6
20260508160058 13 208 9.7 16.1 0.00 0.00 0.00 44 1010.7
20260508154603 12 192 3.2 14.5 0.00 0.00 0.00 44 1010.8
20260508153055 12 228 4.8 14.5 0.00 0.00 0.00 44 1010.8
20260508151548 12 254 4.8 14.5 0.00 0.00 0.00 48 1010.9
20260508150046 12 252 8.0 12.9 0.00 0.00 0.00 50 1011.1
20260508144544 11 213 9.7 16.1 0.00 0.00 0.00 51 1011.1
20260508143037 11 282 6.4 16.1 0.00 0.00 0.00 53 1011.2
20260508141601 10 227 8.0 14.5 0.00 0.00 0.00 55 1011.4
20260508140029 10 229 4.8 16.1 0.00 0.00 0.00 60 1011.4
20260508134528 9 153 4.8 12.9 0.00 0.00 0.00 61 1011.2
20260508133020 8 221 6.4 11.3 0.00 0.00 0.00 64 1011.3
20260508131516 8 197 4.8 11.3 0.00 0.00 0.00 66 1011.4
20260508130011 7 223 3.2 11.3 0.00 0.00 0.00 71 1011.5
20260508124507 6 234 4.8 9.7 0.00 0.00 0.00 74 1011.4
20260508123004 6 242 4.8 9.7 0.00 0.00 0.00 76 1011.3
20260508121603 5 257 3.2 11.3 0.00 0.00 0.00 77 1011.1
20260508120055 5 240 3.2 6.4 0.00 0.00 0.00 79 1011.0
20260508114551 4 222 1.6 6.4 0.00 0.00 0.00 83 1010.9
20260508113104 3 222 0.0 0.0 0.00 0.00 0.00 85 1010.9
20260508111548 3 222 0.0 0.0 0.00 0.00 0.00 86 1010.9
20260508110042 2 222 0.0 0.0 0.00 0.00 0.00 87 1011.0
20260508104540 2 222 0.0 0.0 0.00 0.00 0.00 87 1011.0
20260508103039 2 222 0.0 0.0 0.00 0.00 0.00 87 1010.8
20260508101537 1 222 0.0 0.0 0.00 0.00 0.00 87 1010.8
20260508100035 1 222 0.0 0.0 0.00 0.00 0.00 86 1010.8
20260508094532 2 222 0.0 0.0 0.00 0.00 0.00 85 1010.8
20260508093032 2 222 0.0 1.6 0.00 0.00 0.00 84 1010.8
20260508091536 2 261 0.0 0.0 0.00 0.00 0.00 84 1010.8
20260508090037 2 261 0.0 0.0 0.00 0.00 0.00 84 1010.7
20260508084527 2 261 0.0 0.0 0.00 0.00 0.00 83 1010.7
20260508083024 2 261 0.0 0.0 0.00 0.00 0.00 82 1010.8
20260508081521 3 261 0.0 0.0 0.00 0.00 0.00 80 1010.9
20260508080030 3 261 0.0 0.0 0.00 0.00 0.00 79 1010.9
20260508074526 4 261 0.0 0.0 0.00 0.00 0.00 79 1010.8
20260508073015 5 261 0.0 6.4 0.00 0.00 0.00 79 1010.8
20260508071614 4 240 4.8 8.0 0.00 0.00 0.00 79 1010.7
20260508070010 5 233 3.2 8.0 0.00 0.00 0.00 78 1010.4
20260508064507 5 228 3.2 9.7 0.00 0.00 0.00 77 1010.5
20260508063005 5 213 3.2 8.0 0.00 0.00 0.00 75 1010.7
20260508061503 6 238 6.4 11.3 0.00 0.00 0.00 75 1010.9
20260508060109 6 220 4.8 9.7 0.00 0.00 0.00 75 1010.9
20260508054558 6 225 4.8 11.3 0.00 0.00 0.00 75 1010.9
20260508053056 6 229 4.8 9.7 0.00 0.00 0.00 75 1011.2
20260508051554 6 216 4.8 8.0 0.00 0.00 0.00 73 1011.2
20260508050053 6 223 4.8 11.3 0.00 0.00 0.00 73 1011.4
20260508044546 6 219 3.2 9.7 0.00 0.00 0.00 73 1011.3
20260508043045 5 212 3.2 9.7 0.00 0.00 0.00 71 1011.4
20260508041540 5 223 4.8 9.7 0.00 0.00 0.00 71 1011.5
20260508040036 6 219 4.8 12.9 0.00 0.00 0.00 70 1011.5
20260508034536 6 207 3.2 12.9 0.00 0.00 0.00 70 1011.4
20260508033036 5 242 1.6 6.4 0.00 0.00 0.00 73 1011.3
20260508031535 5 175 6.4 12.9 0.00 0.00 0.00 75 1011.4
20260508030039 4 163 6.4 11.3 0.00 0.00 0.00 77 1011.5
20260508024538 3 150 1.6 4.8 0.00 0.00 0.00 79 1011.7
20260508023034 3 150 3.2 4.8 0.00 0.00 0.00 79 1011.7
20260508021544 3 133 3.2 6.4 0.00 0.00 0.00 77 1011.5
20260508020032 3 132 3.2 6.4 0.00 0.00 0.00 76 1011.3
20260508014532 5 142 3.2 8.0 0.00 0.00 0.00 74 1011.5
20260508013039 5 140 9.7 14.5 0.00 0.00 0.00 73 1011.3
20260508011533 5 171 9.7 16.1 0.00 0.00 0.00 73 1011.4
20260508010033 5 136 12.9 20.9 0.00 0.00 0.00 72 1011.3
20260508004537 5 148 6.4 12.9 0.00 0.00 0.00 72 1011.2
20260508003029 5 128 9.7 12.9 0.00 0.00 0.00 70 1011.0
20260508001528 6 125 6.4 12.9 0.00 0.00 0.00 69 1011.1
20260508000028 6 125 6.4 14.5 0.00 0.00 0.00 66 1010.9
20260507234526 6 85 6.4 14.5 0.00 0.00 0.00 66 1011.0
20260507233035 6 111 8.0 16.1 0.00 0.00 0.00 64 1010.9
20260507231525 6 93 9.7 16.1 0.00 0.00 0.00 66 1011.0
20260507230026 6 82 11.3 16.1 0.00 0.00 0.00 67 1011.1
20260507224523 7 84 11.3 14.5 0.00 0.00 0.00 67 1010.9
20260507223023 7 73 8.0 14.5 0.00 0.00 0.00 69 1011.1
20260507221522 6 54 11.3 16.1 0.00 0.00 0.00 68 1011.1
20260507220022 7 70 9.7 14.5 0.00 0.00 0.00 70 1011.1
20260507214526 6 56 6.4 17.7 0.00 0.00 0.00 70 1011.1
20260507213020 6 68 9.7 17.7 0.00 0.00 0.00 70 1011.1
20260507211518 7 77 12.9 19.3 0.00 0.00 0.00 70 1011.1
20260507210032 5 82 9.7 16.1 0.00 0.00 0.00 71 1011.3
20260507204516 6 84 9.7 16.1 0.00 0.00 0.00 72 1011.3
20260507203015 7 40 14.5 19.3 0.00 0.00 0.00 73 1011.4
20260507201514 6 61 8.0 16.1 0.00 0.00 0.00 72 1011.4
20260507200018 6 56 11.3 16.1 0.00 0.00 0.00 74 1011.7
20260507194517 5 36 6.4 14.5 0.00 0.00 0.00 68 1011.9
20260507193014 6 52 16.1 20.9 0.00 0.00 0.00 68 1011.5